Regional Weather Roundup
Issued by NWS Cleveland, OH

Home | Current Version | Previous Version | Text Only | Print | Product List | Glossary Off
Versions: 1 2 3 4 5 6 7 8 9 10 11 12 13 14 15 16 17 18 19 20 21 22 23 24 25 26 27 28 29 30 31 32 33 34 35 36 37 38 39 40 41 42 43 44 45 46 47 48 49 50

000
ASUS41 KCLE 290400
RWRCLE
OHIO REGIONAL WEATHER ROUNDUP
NATIONAL WEATHER SERVICE WILMINGTON, OH
1200 AM EDT WED JUL 29 2015

NOTE: "FAIR" INDICATES FEW OR NO CLOUDS BELOW 12,000 FEET WITH NO
SIGNIFICANT WEATHER AND/OR OBSTRUCTIONS TO VISIBILITY.

OHZ001>008-015>018-024>027-034-035-043-044-290500-
   NORTHWEST OHIO

CITY           SKY/WX    TMP DP  RH WIND       PRES   REMARKS
DEFIANCE       PTCLDY    76  65  68 E6        30.01S
FINDLAY        CLEAR     76  65  68 E5        30.02R
TOLEDO EXPRESS PTCLDY    69  65  86 CALM      30.01S
TOLEDO EXEC    PTCLDY    74  66  76 CALM      30.02R
LIMA           PTCLDY    73  67  81 E3        30.03R
$$

OHZ009>014-019>023-028>033-038-089-290500-
   NORTHEAST OHIO

CITY           SKY/WX    TMP DP  RH WIND       PRES   REMARKS
CLE-HOPKINS    MOCLDY    78  60  53 CALM      30.03R
CLE-LAKEFRONT  CLEAR     81  57  43 SE6       30.00R
CUY CO. ARPT   NOT AVBL
LORAIN-ELYRIA  CLEAR     68  63  84 CALM      30.03R
ASHTABULA      CLEAR     68  64  87 CALM      30.03R
AKRON-CANTON   PTCLDY    72  64  76 NE6       30.03R
WOOSTER        NOT AVBL
MANSFIELD      CLEAR     70  66  87 CALM      30.05R
YOUNGSTOWN     MOCLDY    66  64  93 E6        30.03R
$$

OHZ042-051>053-060>062-070>072-077>081-290500-
  SOUTHWEST OHIO

CITY           SKY/WX    TMP DP  RH WIND       PRES   REMARKS
CINC-COVINGTON PTCLDY    77  73  87 CALM      30.01S
CINC-LUNKEN    PTCLDY    76  75  97 E3        30.00S
HAMILTON       LGT RAIN  75  73  93 CALM      30.01S
DAYTON         NOT AVBL
WRIGHT-PAT AFB CLEAR     76  73  87 CALM      30.02R
DAYTON GENERAL CLEAR     77  71  82 CALM      30.02R
WILMINGTON     CLEAR     74  71  91 CALM      30.02R FOG
$$

OHZ036-037-039>041-045>050-054>059-063>069-073>076-082>088-290500-
  CENTRAL AND SOUTHEAST OHIO

CITY           SKY/WX    TMP DP  RH WIND       PRES   REMARKS
COLUMBUS       PTCLDY    79  68  69 N3        30.00R
OSU AIRPORT    PTCLDY    75  69  81 N3        30.01R
BOLTON FIELD   NOT AVBL
RICKENBACK AFB NOT AVBL
NEWARK         CLEAR     72  69  90 CALM      30.01R
MARION         PTCLDY    71  67  87 NE3       30.03R FOG
LANCASTER      CLEAR     70  68  93 CALM      30.01R FOG
ZANESVILLE     PTCLDY    73  70  90 CALM      30.00R FOG
NEW PHILLY     CLEAR     70  68  93 CALM      30.01R FOG
$$



USA.gov is the U.S. government's official web portal to all federal, state and local government web resources and services.